Weather in Benissa

Spain     38°42′50″N   0°02′58″E
temp.,
°C
wind,
m/s
gust,
m/s
humid.,
%
clouds,
%
prec.,
mm/h
press.,
hPa
HPBL,
m
4 march, thu
thu401:00+10nnw239654 0.3 102760
04:00+10nnw239469 0.4 102591
07:00+9nnw349677 0.7 102394
10:00+12n458591 0.3 1023465
13:00+14nne337095 0.6 1022841
16:00+13ne326398 0.0 1020787
19:00+10nne227999 0.0 101868
22:00+9n119093 0.0 102023
5 march, fri
fri501:00+9nnw128889 0.0 101954
04:00+8nw239234 0.0 101850
07:00+7nnw229119 0.0 101740
10:00+12n22752 0.0 1018405
13:00+13ne326526 0.0 1018811
16:00+13ene326969 0.0 1017713
19:00+10ene129082 0.0 101744
22:00+9nnw1192100 0.0 102029
6 march, sat
sat601:00+9nnw2291100 0.0 102040
04:00+8nw3392100 0.0 102073
07:00+8nw339298 0.0 102174
10:00+11n3481100 0.0 1022457
13:00+13nne336898 0.1 1023808
16:00+13nne3373100 0.0 1022675
19:00+10nne238994 0.1 1022124
22:00+9n129362 0.0 102330
7 march, sun
sun701:00+10nnw348968 0.2 1023192
04:00+10n2398100 1.9 1022175
07:00+10nnw3496100 3.3 1022221
10:00+10nw3491100 0.3 1022284
13:00+12n3380100 0.4 1022483
16:00+13n447180 0.0 1020653
19:00+10n228875 0.0 101968
22:00+9nw238781 0.0 102044
8 march, mon
mon801:00+8nw228640 0.0 101932
04:00+7wnw12870 0.0 101829
07:00+6wnw11850 0.0 101829
10:00+12se11640 0.0 1019354
13:00+14se33660 0.2 1019691
16:00+15sse34615 0.9 1017547
19:00+11s33833 1.1 101768
22:00+10sw33885 0.0 101955